TimeMDT,TemperatureF,Dew PointF,Humidity,Sea Level PressureIn,VisibilityMPH,Wind Direction,Wind SpeedMPH,Gust SpeedMPH,PrecipitationIn,Events,Conditions,WindDirDegrees,DateUTC
12:07 AM,77.0,30.2,18,29.74,10.0,SW,19.6,33.4,N/A,,Clear,220,2013-06-11 06:07:00
12:53 AM,72.0,36.0,27,29.59,10.0,SSW,17.3,25.3,N/A,,Clear,210,2013-06-11 06:53:00
1:53 AM,70.0,30.9,24,29.59,10.0,SW,18.4,28.8,N/A,,Clear,220,2013-06-11 07:53:00
2:53 AM,69.1,30.9,24,29.62,10.0,SSW,17.3,27.6,N/A,,Clear,210,2013-06-11 08:53:00
3:53 AM,69.1,32.0,25,29.62,10.0,SW,18.4,-,N/A,,Clear,220,2013-06-11 09:53:00
4:53 AM,63.0,34.0,34,29.64,10.0,West,6.9,-,N/A,,Clear,280,2013-06-11 10:53:00
5:53 AM,63.0,39.9,43,29.65,10.0,SW,8.1,-,N/A,,Clear,230,2013-06-11 11:53:00
6:53 AM,66.0,39.9,38,29.69,10.0,SW,18.4,24.2,N/A,,Scattered Clouds,220,2013-06-11 12:53:00
7:53 AM,66.9,39.9,37,29.70,10.0,SW,17.3,21.9,0.00,Rain,Light Rain,230,2013-06-11 13:53:00
8:53 AM,69.1,41.0,36,29.74,10.0,SW,24.2,39.1,0.00,,Scattered Clouds,230,2013-06-11 14:53:00
9:53 AM,69.1,43.0,39,29.75,10.0,South,10.4,-,N/A,,Scattered Clouds,190,2013-06-11 15:53:00
10:53 AM,73.0,41.0,31,29.78,10.0,SW,19.6,28.8,N/A,,Partly Cloudy,220,2013-06-11 16:53:00
11:53 AM,78.1,42.1,28,29.78,10.0,WSW,17.3,-,N/A,,Partly Cloudy,250,2013-06-11 17:53:00
12:53 PM,80.1,41.0,25,29.79,10.0,WSW,16.1,21.9,N/A,,Partly Cloudy,250,2013-06-11 18:53:00
1:53 PM,82.0,39.0,22,29.79,10.0,WSW,13.8,21.9,N/A,,Partly Cloudy,250,2013-06-11 19:53:00
2:53 PM,84.0,43.0,24,29.78,10.0,West,15.0,-,N/A,,Partly Cloudy,260,2013-06-11 20:53:00
3:53 PM,81.0,42.1,25,29.79,10.0,West,16.1,-,N/A,,Scattered Clouds,260,2013-06-11 21:53:00
4:53 PM,82.9,43.0,24,29.79,10.0,WSW,19.6,24.2,N/A,,Scattered Clouds,250,2013-06-11 22:53:00
5:53 PM,82.9,41.0,23,29.79,10.0,WSW,12.7,-,N/A,,Partly Cloudy,240,2013-06-11 23:53:00
6:53 PM,82.0,41.0,23,29.78,10.0,SW,11.5,-,N/A,,Partly Cloudy,230,2013-06-12 00:53:00
7:53 PM,80.1,43.0,27,29.79,10.0,SSW,12.7,-,N/A,,Partly Cloudy,210,2013-06-12 01:53:00
8:53 PM,71.1,44.1,38,29.81,10.0,South,10.4,-,N/A,,Scattered Clouds,170,2013-06-12 02:53:00
9:53 PM,69.1,41.0,36,29.83,10.0,South,8.1,-,N/A,,Clear,180,2013-06-12 03:53:00
10:53 PM,69.1,39.0,33,29.83,10.0,South,10.4,-,N/A,,Clear,180,2013-06-12 04:53:00
11:53 PM,68.0,37.0,32,29.83,10.0,South,9.2,-,N/A,,Clear,190,2013-06-12 05:53:00